AFL61 UMMS-UUEE

Flight info

Callsign AFL61
Flight time N/A
Altitude 31000
Route AGNEF2F AGNEF N869 RATIN L999 AGLAN M864 DIPOP DIPOP3E
Aircraft A21N/M-SDE2E3FGHIRWXY/LB1

Departure

Time 2026-04-28 19:26
Airport Minsk National Airport (UMMS)

Arrival

Time N/A
Airport Sheremetyevo International Airport (UUEE)
Time Latitude Longitude Altitude Speed Heading
2026-04-28 19:11 53.88809 28.03433 652 ft 2 kts 25°
2026-04-28 19:12 53.88797 28.03419 652 ft 2 kts 53°
2026-04-28 19:12 53.88791 28.03396 653 ft 2 kts 81°
2026-04-28 19:12 53.88789 28.03371 652 ft 2 kts 84°
2026-04-28 19:12 53.88789 28.03346 652 ft 2 kts 93°
2026-04-28 19:13 53.88789 28.03322 652 ft 1 kts 90°
2026-04-28 19:13 53.88789 28.03321 652 ft 0 kts 90°
2026-04-28 19:17 53.88789 28.03328 652 ft 1 kts 90°
2026-04-28 19:17 53.88791 28.03392 652 ft 11 kts 82°
2026-04-28 19:18 53.88802 28.03491 652 ft 7 kts 77°
2026-04-28 19:18 53.88829 28.03574 652 ft 8 kts 50°
2026-04-28 19:18 53.88873 28.03657 652 ft 9 kts 42°
2026-04-28 19:18 53.88905 28.03741 654 ft 8 kts 88°
2026-04-28 19:19 53.88883 28.03838 655 ft 10 kts 120°
2026-04-28 19:19 53.88852 28.03931 658 ft 7 kts 118°
2026-04-28 19:19 53.88832 28.04003 659 ft 5 kts 115°
2026-04-28 19:19 53.88811 28.04083 661 ft 10 kts 90°
2026-04-28 19:20 53.88854 28.04199 663 ft 13 kts 50°
2026-04-28 19:20 53.88921 28.04326 666 ft 15 kts 47°
2026-04-28 19:20 53.88991 28.04458 671 ft 14 kts 49°
2026-04-28 19:20 53.89063 28.04598 675 ft 17 kts 48°
2026-04-28 19:21 53.89134 28.04739 682 ft 13 kts 50°
2026-04-28 19:21 53.89182 28.04846 687 ft 11 kts 74°
2026-04-28 19:21 53.89154 28.04962 689 ft 16 kts 140°
2026-04-28 19:21 53.89042 28.05123 688 ft 21 kts 139°
2026-04-28 19:22 53.88928 28.05292 688 ft 21 kts 137°
2026-04-28 19:22 53.88856 28.05403 689 ft 20 kts 137°
2026-04-28 19:22 53.88698 28.05634 690 ft 23 kts 139°
2026-04-28 19:22 53.88569 28.05825 690 ft 25 kts 138°
2026-04-28 19:23 53.88437 28.06022 694 ft 26 kts 139°
2026-04-28 19:23 53.88292 28.06232 696 ft 27 kts 139°
2026-04-28 19:23 53.88150 28.06444 691 ft 27 kts 138°
2026-04-28 19:23 53.88026 28.06632 685 ft 7 kts 138°
2026-04-28 19:24 53.87975 28.06710 681 ft 14 kts 137°
2026-04-28 19:24 53.87942 28.06838 676 ft 0 kts 71°
2026-04-28 19:24 53.87944 28.06846 675 ft 3 kts 70°
2026-04-28 19:24 53.87975 28.06928 673 ft 13 kts 49°
2026-04-28 19:25 53.88067 28.06984 673 ft 14 kts 336°
2026-04-28 19:25 53.88090 28.06955 675 ft 1 kts 319°
2026-04-28 19:25 53.88276 28.06674 687 ft 72 kts 319°
2026-04-28 19:25 53.88830 28.05856 694 ft 136 kts 317°
2026-04-28 19:26 53.89660 28.04603 840 ft 175 kts 319°
2026-04-28 19:26 53.90565 28.03245 1564 ft 174 kts 320°
2026-04-28 19:26 53.91427 28.02003 2121 ft 158 kts 324°
2026-04-28 19:26 53.92283 28.00812 2315 ft 161 kts 322°
2026-04-28 19:27 53.93154 27.99558 2456 ft 168 kts 321°
2026-04-28 19:27 53.94052 27.98235 2607 ft 174 kts 321°
2026-04-28 19:27 53.95126 27.97309 2733 ft 179 kts 352°
2026-04-28 19:27 53.96349 27.97871 2867 ft 192 kts 32°
2026-04-28 19:28 53.97265 27.99577 2972 ft 205 kts 47°
2026-04-28 19:28 53.98125 28.01621 2918 ft 223 kts 49°
2026-04-28 19:28 53.99014 28.03784 2932 ft 220 kts 51°
2026-04-28 19:28 53.99512 28.06242 2911 ft 226 kts 85°
2026-04-28 19:29 53.99095 28.08834 2953 ft 237 kts 119°
2026-04-28 19:29 53.98377 28.10273 2982 ft 240 kts 133°
2026-04-28 19:29 53.96677 28.12716 2982 ft 240 kts 138°
2026-04-28 19:29 53.95364 28.14465 2973 ft 240 kts 139°
2026-04-28 19:30 53.94047 28.16203 2972 ft 240 kts 139°
2026-04-28 19:30 53.92742 28.17926 2974 ft 240 kts 139°
2026-04-28 19:30 53.91416 28.19677 2977 ft 240 kts 139°
2026-04-28 19:30 53.90103 28.21413 2979 ft 240 kts 139°
2026-04-28 19:31 53.88785 28.23152 2980 ft 240 kts 139°
2026-04-28 19:31 53.87463 28.24890 2981 ft 240 kts 139°
2026-04-28 19:31 53.86141 28.26626 2979 ft 240 kts 139°
2026-04-28 19:31 53.84817 28.28359 2980 ft 241 kts 139°
2026-04-28 19:32 53.83482 28.30025 2970 ft 241 kts 148°
2026-04-28 19:32 53.81879 28.30777 2950 ft 240 kts 183°
2026-04-28 19:32 53.80318 28.30004 2970 ft 234 kts 216°
2026-04-28 19:32 53.79065 28.28250 3002 ft 232 kts 226°
2026-04-28 19:33 53.77930 28.26346 2990 ft 231 kts 228°
2026-04-28 19:33 53.76996 28.24205 2947 ft 222 kts 253°
2026-04-28 19:33 53.76857 28.21837 3010 ft 187 kts 286°
2026-04-28 19:33 53.77455 28.20125 2959 ft 160 kts 317°
2026-04-28 19:34 53.78372 28.19277 2802 ft 142 kts 337°
2026-04-28 19:34 53.79210 28.18623 2594 ft 127 kts 334°
2026-04-28 19:34 53.80043 28.17961 2342 ft 137 kts 327°
2026-04-28 19:34 53.80879 28.17182 2298 ft 139 kts 324°
2026-04-28 19:35 53.81706 28.16342 2282 ft 138 kts 320°
2026-04-28 19:35 53.82470 28.15357 2231 ft 139 kts 313°
2026-04-28 19:35 53.83128 28.14166 2044 ft 139 kts 304°
2026-04-28 19:35 53.83804 28.13007 1808 ft 135 kts 327°
2026-04-28 19:36 53.84566 28.12058 1627 ft 137 kts 310°
2026-04-28 19:36 53.85173 28.10809 1553 ft 135 kts 315°
2026-04-28 19:36 53.85963 28.09899 1425 ft 142 kts 317°
2026-04-28 19:36 53.86675 28.08801 1154 ft 132 kts 322°
2026-04-28 19:37 53.87398 28.07966 887 ft 123 kts 310°
2026-04-28 19:37 53.87671 28.07125 682 ft 124 kts 295°
2026-04-28 19:37 53.88213 28.05618 680 ft 87 kts 308°
2026-04-28 19:37 53.88372 28.05273 676 ft 0 kts 310°